Date String (YYYY-MM-DD hh:mm:ss) UTC,Instrument flags,absolute air pressure of the measurement (hPa),sample flow rate (lpm),inlet stack bypass flow (lpm),air temperature of the measurement (°C),ambient temperature measured by the external sensor (°C),aerosol sample conditioner tube jacket temperature (°C),OPC LED temperature (°C),internal box temperature (°C),relative humidity of the measurement (%),span deviation,mass concentration of particles derived from Lorenz-Mie calculation of OPC scattering (μg/m³),mass concentration of particles derived from Lorenz-Mie calculation of OPC scattering (μg/m³),mass concentration of particles derived from Lorenz-Mie calculation of OPC scattering (μg/m³)
DateTimeUTC,F1_M11,P_M11,Q1_M11,Q2_M11,T1_M11,T2_M11,T3_M11,T4_M11,T5_M11,U1_M11,ZSPAN_M11,X0_M11,X2_M11,X1_M11
2024-03-14 11:00:00,SystemResetWarning,0827.8,5.01,000.00,018.7,018.0,000.0,027.2,020.3,25.3,0000.0,0003.14,0001.74,0001.32
2024-03-14 11:01:00,SystemResetWarning,0827.5,5.01,000.00,018.6,017.7,000.0,027.2,020.2,25.3,0000.0,0003.32,0001.80,0001.37
2024-03-14 11:02:00,SystemResetWarning,0827.7,5.01,000.00,018.6,017.4,000.0,027.2,020.0,25.2,0000.0,0003.51,0001.90,0001.42
2024-03-14 11:03:00,SystemResetWarning,0827.7,5.00,000.00,018.5,017.2,000.0,027.2,020.0,25.4,0000.0,0003.59,0001.94,0001.45
2024-03-14 11:04:00,SystemResetWarning,0827.6,4.99,000.00,018.4,017.1,000.0,027.2,020.0,25.3,0000.0,0003.60,0001.97,0001.49
2024-03-14 11:05:00,SystemResetWarning,0827.6,4.99,000.00,018.4,017.0,000.0,027.2,020.0,25.1,0000.0,0003.65,0002.02,0001.52
2024-03-14 11:06:00,SystemResetWarning,0827.6,5.00,000.00,018.4,016.9,000.0,027.2,020.0,25.0,0000.0,0004.18,0002.04,0001.54
2024-03-14 11:07:00,SystemResetWarning,0827.7,5.00,000.00,018.3,016.9,000.0,027.2,020.0,25.0,0000.0,0004.13,0002.05,0001.56
2024-03-14 11:08:00,SystemResetWarning,0827.7,5.01,000.00,018.3,016.9,000.0,027.2,020.0,25.1,0000.0,0003.82,0001.99,0001.55
2024-03-14 11:09:00,SystemResetWarning,0827.7,5.00,000.00,018.4,017.7,000.0,027.3,020.4,25.0,0000.0,0003.79,0002.03,0001.55
2024-03-14 11:10:00,SystemResetWarning,0827.8,5.00,000.00,018.7,018.8,000.0,027.3,021.0,24.3,0000.0,0003.79,0002.04,0001.55
2024-03-14 11:11:00,SystemResetWarning,0827.7,5.00,000.00,018.9,019.4,000.0,027.4,021.3,24.1,0000.0,0003.65,0002.01,0001.52
2024-03-14 11:12:00,SystemResetWarning,0827.8,4.99,000.00,019.0,019.1,000.0,027.3,021.0,23.9,0000.0,0003.58,0001.98,0001.49
2024-03-14 11:13:00,SystemResetWarning,0827.8,5.00,000.00,018.9,018.7,000.0,027.3,020.7,23.9,0000.0,0003.45,0001.91,0001.45
2024-03-14 11:14:00,SystemResetWarning,0827.8,5.01,000.00,018.8,018.2,000.0,027.3,020.5,23.8,0000.0,0003.46,0001.91,0001.42
2024-03-14 11:15:00,SystemResetWarning,0827.8,5.00,000.00,018.8,017.9,000.0,027.2,020.3,23.8,0000.0,0003.50,0001.91,0001.39
2024-03-14 11:16:00,SystemResetWarning,0827.8,5.00,000.00,018.7,017.6,000.0,027.2,020.1,24.0,0000.0,0003.49,0001.87,0001.36
2024-03-14 11:17:00,SystemResetWarning,0827.9,5.00,000.00,018.6,017.4,000.0,027.2,020.0,23.8,0000.0,0002.89,0001.83,0001.33
2024-03-14 11:18:00,SystemResetWarning,0827.9,5.00,000.00,018.5,017.2,000.0,027.2,020.0,23.7,0000.0,0002.79,0001.80,0001.31
2024-03-14 11:19:00,SystemResetWarning,0828.0,5.01,000.00,018.5,017.0,000.0,027.2,020.0,23.6,0000.0,0002.77,0001.78,0001.30
2024-03-14 11:20:00,SystemResetWarning,0828.0,5.01,000.00,018.4,016.9,000.0,027.2,020.0,23.6,0000.0,0002.74,0001.75,0001.29
2024-03-14 11:21:00,SystemResetWarning,0828.1,5.00,000.00,018.4,016.8,000.0,027.2,020.0,23.3,0000.0,0002.79,0001.75,0001.27
2024-03-14 11:22:00,SystemResetWarning,0828.1,4.99,000.00,018.3,016.8,000.0,027.2,020.0,23.6,0000.0,0002.89,0001.74,0001.24
2024-03-14 11:23:00,SystemResetWarning,0828.1,5.00,000.00,018.3,016.9,000.0,027.2,020.0,23.5,0000.0,0002.84,0001.69,0001.20
2024-03-14 11:24:00,SystemResetWarning,0828.1,5.01,000.00,018.4,017.7,000.0,027.3,020.4,23.2,0000.0,0002.89,0001.68,0001.18
2024-03-14 11:25:00,SystemResetWarning,0828.2,5.00,000.00,018.7,018.8,000.0,027.4,021.0,22.7,0000.0,0002.73,0001.57,0001.13
2024-03-14 11:26:00,SystemResetWarning,0828.2,4.98,000.00,018.8,018.9,000.0,027.3,021.0,22.4,0000.0,0002.58,0001.48,0001.09
2024-03-14 11:27:00,SystemResetWarning,0828.2,5.03,000.00,018.8,018.5,000.0,027.3,020.7,22.3,0000.0,0002.52,0001.45,0001.06
2024-03-14 11:28:00,SystemResetWarning,0828.2,5.00,000.00,018.7,018.1,000.0,027.2,020.4,22.3,0000.0,0002.55,0001.44,0001.03
2024-03-14 11:29:00,SystemResetWarning,0828.2,4.99,000.00,018.6,017.8,000.0,027.2,020.2,22.3,0000.0,0002.53,0001.41,0000.99
2024-03-14 11:30:00,SystemResetWarning,0828.2,5.00,000.00,018.6,017.5,000.0,027.2,020.1,22.5,0000.0,0002.41,0001.36,0000.95
2024-03-14 11:31:00,SystemResetWarning,0828.3,4.99,000.00,018.5,017.3,000.0,027.2,020.0,22.5,0000.0,0002.34,0001.32,0000.92
2024-03-14 11:32:00,SystemResetWarning,0828.4,5.00,000.00,018.4,017.1,000.0,027.2,020.0,22.5,0000.0,0002.21,0001.26,0000.88
2024-03-14 11:33:00,SystemResetWarning,0828.4,5.00,000.00,018.4,017.0,000.0,027.2,020.0,22.7,0000.0,0002.07,0001.22,0000.85
2024-03-14 11:34:00,SystemResetWarning,0828.4,5.01,000.00,018.4,016.9,000.0,027.2,020.0,22.6,0000.0,0001.98,0001.21,0000.84
2024-03-14 11:35:00,SystemResetWarning,0828.4,5.01,000.00,018.3,016.8,000.0,027.2,020.0,22.6,0000.0,0002.14,0001.18,0000.83
2024-03-14 11:36:00,SystemResetWarning,0828.5,5.00,000.00,018.3,016.7,000.0,027.2,020.0,22.9,0000.0,0002.94,0001.22,0000.83
2024-03-14 11:37:00,SystemResetWarning,0828.6,5.00,000.00,018.3,016.7,000.0,027.2,020.0,22.9,0000.0,0003.82,0001.26,0000.83
2024-03-14 11:38:00,SystemResetWarning,0828.6,5.00,000.00,018.3,017.2,000.0,027.2,020.2,22.9,0000.0,0004.51,0001.25,0000.82
2024-03-14 11:39:00,SystemResetWarning,0828.6,5.00,000.00,018.5,018.4,000.0,027.3,020.8,22.7,0000.0,0004.68,0001.21,0000.80
2024-03-14 11:40:00,SystemResetWarning,0828.7,5.00,000.00,018.8,019.3,000.0,027.3,021.3,22.4,0000.0,0004.65,0001.19,0000.80
2024-03-14 11:41:00,SystemResetWarning,0828.7,5.00,000.00,018.9,019.2,000.0,027.3,021.1,22.2,0000.0,0004.67,0001.17,0000.79
2024-03-14 11:42:00,SystemResetWarning,0828.7,4.99,000.00,018.9,018.9,000.0,027.3,020.9,22.4,0000.0,0004.71,0001.17,0000.78
2024-03-14 11:43:00,SystemResetWarning,0828.7,5.02,000.00,018.8,018.5,000.0,027.2,020.6,22.5,0000.0,0004.85,0001.19,0000.79
2024-03-14 11:44:00,SystemResetWarning,0828.7,5.00,000.00,018.8,018.1,000.0,027.2,020.4,22.6,0000.0,0004.95,0001.18,0000.78
2024-03-14 11:45:00,SystemResetWarning,0828.7,4.99,000.00,018.7,017.8,000.0,027.2,020.2,22.8,0000.0,0005.32,0001.20,0000.78
2024-03-14 11:46:00,SystemResetWarning,0828.7,4.99,000.00,018.6,017.6,000.0,027.2,020.1,23.0,0000.0,0005.27,0001.21,0000.78
2024-03-14 11:47:00,SystemResetWarning,0828.8,5.00,000.00,018.5,017.4,000.0,027.2,020.0,23.2,0000.0,0005.59,0001.18,0000.78
2024-03-14 11:48:00,SystemResetWarning,0828.7,5.00,000.00,018.5,017.2,000.0,027.2,020.0,23.3,0000.0,0004.60,0001.15,0000.77
2024-03-14 11:49:00,SystemResetWarning,0828.8,5.01,000.00,018.4,017.1,000.0,027.2,020.0,23.5,0000.0,0004.16,0001.18,0000.78
2024-03-14 11:50:00,SystemResetWarning,0828.7,5.00,000.00,018.4,017.0,000.0,027.2,020.0,23.6,0000.0,0003.77,0001.19,0000.79
2024-03-14 11:51:00,SystemResetWarning,0828.7,4.99,000.00,018.3,016.9,000.0,027.2,020.0,23.7,0000.0,0003.86,0001.24,0000.79
2024-03-14 11:52:00,SystemResetWarning,0828.7,4.99,000.00,018.3,016.8,000.0,027.2,020.0,23.8,0000.0,0004.58,0001.30,0000.80
2024-03-14 11:53:00,SystemResetWarning,0828.7,4.99,000.00,018.3,016.8,000.0,027.2,020.0,24.0,0000.0,0004.97,0001.31,0000.81
2024-03-14 11:54:00,SystemResetWarning,0828.8,5.01,000.00,018.3,017.3,000.0,027.2,020.2,24.0,0000.0,0004.86,0001.30,0000.80
2024-03-14 11:55:00,SystemResetWarning,0828.8,5.01,000.00,018.5,018.4,000.0,027.3,020.8,23.8,0000.0,0004.80,0001.30,0000.81
2024-03-14 11:56:00,SystemResetWarning,0828.8,4.98,000.00,018.8,018.9,000.0,027.3,021.0,23.5,0000.0,0004.55,0001.30,0000.82
2024-03-14 11:57:00,SystemResetWarning,0828.7,5.00,000.00,018.8,018.6,000.0,027.2,020.8,23.5,0000.0,0004.54,0001.29,0000.82
2024-03-14 11:58:00,SystemResetWarning,0828.7,5.00,000.00,018.7,018.3,000.0,027.2,020.5,23.6,0000.0,0004.15,0001.35,0000.84
2024-03-14 11:59:00,SystemResetWarning,0828.7,5.00,000.00,018.6,018.0,000.0,027.2,020.3,23.7,0000.0,0004.02,0001.38,0000.84
